User: anonymous   Login
Location: Fort Wayne
(41.1310°N, 85.1290°W)
Time: 06:12:50
(UTC-04:00)
Language:

OPAL - Orbit

View from above orbital plane
View from above orbital plane
View from above satellite
View from above satellite

Ground track
Ground track

The orbit data is extracted from the following two-line orbital elements,

1 26063U 00004C   17232.57012518 -.00000013 +00000-0 +15595-4 0  9999
2 26063 100.2290 248.1709 0037082 126.5816 233.8786 14.36670794920424
Epoch (UTC): 20 August 2017 13:40:58
Eccentricity: 0.0037082
inclination: 100.2290°
perigee height: 743 km
apogee height: 796 km
right ascension of ascending node: 248.1709°
argument of perigee: 126.5816°
revolutions per day: 14.36670794
mean anomaly at epoch: 233.8786°
orbit number at epoch: 92042

The dashed part of the orbit path shows where the satellite is in the earth's shadow,  

DLR